Weather Roundup
Issued by NWS Chicago, IL

Home | Current Version | Previous Version | Text Only | Print | Product List | Glossary Off
Versions: 1 2 3 4 5 6 7 8 9 10 11 12 13 14 15 16 17 18 19 20 21 22 23 24 25 26 27 28 29 30 31 32 33 34 35 36 37 38 39 40 41 42 43 44 45 46 47 48 49 50

417
NZUS59 KLOT 180409
HRRLOT

CHICAGO AREA WEATHER ROUNDUP
NATIONAL WEATHER SERVICE CHICAGO/ROMEOVILLE IL
1000 PM CST FRI NOV 17 2017

NOTE: "FAIR" INDICATES FEW OR NO CLOUDS BELOW 12,000 FEET WITH NO
SIGNIFICANT WEATHER AND/OR OBSTRUCTIONS TO VISIBILITY.

* THESE STATIONS ARE NOT UNDER NWS QUALITY CONTROL. THEY ALSO MAY NOT
  REPORT WEATHER SUCH AS PRECIPITATION OR FOG.

ILZ005-006-012>014-019>023-180500-
NORTHEAST ILLINOIS

CITY           SKY/WX    TMP DP  RH WIND       PRES   REMARKS
OHARE          LGT RAIN  46  43  89 SW15      29.58F FOG
MIDWAY         LGT RAIN  47  45  93 SW13      29.59F FOG
AURORA         LGT RAIN  46  45  96 S12       29.58F FOG
LANSING*       CLOUDY    46  45  95 SW15G22   29.61F
JOLIET*        CLOUDY    48  46  92 S13       29.59F
WAUKEGAN       LGT RAIN  44  44 100 SW8       29.58S FOG
DUPAGE AIRPORT LGT RAIN  45  45 100 S12       29.57F FOG
WHEELING       LGT RAIN  46  45  96 SW9       29.59F FOG
KANKAKEE*      CLOUDY    46  43  88 SW16G26   29.62F
MORRIS*        CLOUDY    47  44  91 S14       29.58F FOG
LEWIS AIRPORT* CLOUDY    46  44  93 SW15G25   29.59F FOG
NORTHERLY ISL    N/A     45  42  89 S10         N/A
$$

WIZ051-052-058>065-066-070>072-180500-
SOUTHEAST WISCONSIN

CITY           SKY/WX    TMP DP  RH WIND       PRES   REMARKS
MILWAUKEE      LGT RAIN  43  42  97 CALM      29.60S FOG
KENOSHA*       LGT RAIN  45  42  89 W7        29.59S FOG
RACINE*        LGT RAIN  43  42  97 CALM      29.61S FOG
BURLINGTON     DRIZZLE   44  44 100 CALM      29.59S
WAUKESHA       DRIZZLE   37  37 100 CALM      29.61S
WEST BEND      DRIZZLE   37  37 100 CALM      29.60S
$$

INZ001>003-010>013-019-020-180500-
NORTHWEST INDIANA

CITY           SKY/WX    TMP DP  RH WIND       PRES   REMARKS
GARY*          CLOUDY    47  44  90 S9        29.61F
MICHIGAN CITY* NOT AVBL
RENSSELAER*    NOT AVBL
VALPARAISO     CLOUDY    45  42  89 S12       29.62F
$$

LMZ740>746-180500-
SOUTHERN LAKE MICHIGAN

STATION/POSITION TIME  SKY/WX   TEMP WIND        PRES    VSBY
                                AIR  DIR/SP/G
                 (UTC)          (F)  (DEG/KT/KT) (MB)    (MI)
HARRISON CRIB    0340            46  200/ 22/ 25   N/A
BURNHAM HARBOR   0400            46  180/ 11/ 15   N/A
CALUMET HARBOR   NOT AVBL
BURNS HARBOR     0340            43  180/ 15/ 20 1003.7S
MICHIGAN CITY    0340            42  170/ 10/ 11   N/A
$$

ABBREVIATIONS USED IN REMARKS
   TC - TEMPERATURE IN CELSIUS
  WCI - WIND CHILL INDEX
   HX - HEAT INDEX
  VSB - VISIBILITY
$$




USA.gov is the U.S. government's official web portal to all federal, state and local government web resources and services.